Regional Weather Roundup
Issued by NWS

Home | Current Version | Previous Version | Graphics & Text | Print | Product List | Glossary On
Versions: 1 2 3 4 5 6 7 8 9 10 11 12 13 14 15 16 17 18 19 20 21 22 23 24 25 26 27
000
ASUS45 KPSR 310810
RWRAZ

ARIZONA HOURLY REGIONAL WEATHER ROUNDUP
NATIONAL WEATHER SERVICE PHOENIX AZ
100 AM MST TUE MAY 31 2016

NOTE: FAIR INDICATES FEW OR NO CLOUDS BELOW 12,000 FEET WITH NO
SIGNIFICANT WEATHER AND/OR OBSTRUCTIONS TO VISIBILITY.

AZZ001>003-036-310900-
NORTHWEST ARIZONA

CITY           SKY/WX    TMP DP  RH WIND       PRES   REMARKS
KINGMAN        PTCLDY    63  26  24 S7        29.91S
$$

AZZ004>008-015-016-018-310900-
NORTH CENTRAL ARIZONA

CITY           SKY/WX    TMP DP  RH WIND       PRES   REMARKS
GRAND CANYON   CLEAR     38  24  57 CALM      30.11F
WILLIAMS       CLEAR     41  27  56 S10       30.17F
PRESCOTT       CLEAR     54  23  30 CALM      30.01S
FLAGSTAFF      CLEAR     38  26  62 CALM      30.12F
PAYSON         PTCLDY    57  14  18 CALM      30.03F
PAGE           CLEAR     67  32  27 W3        29.94F
$$

AZZ009>014-017-310900-
NORTHEAST ARIZONA

CITY           SKY/WX    TMP DP  RH WIND       PRES   REMARKS
WINSLOW        PTCLDY    63  19  18 SW9       29.99F
SAINT JOHNS    PTCLDY    56  18  22 S5        30.04S
WINDOW ROCK    PTCLDY    55  23  28 NW5       30.08F
SHOW LOW       CLEAR     45  10  24 CALM      30.09F
$$

AZZ023-310900-
GREATER PHOENIX AREA

CITY           SKY/WX    TMP DP  RH WIND       PRES   REMARKS
PHOENIX        CLEAR     77  27  15 E5        29.76F
BUCKEYE        CLEAR     72  19  14 NE5       29.78S
LUKE AFB       CLEAR     67  29  23 N5        29.76S
DEER VALLEY    CLEAR     73  16  11 CALM      29.78F
SCOTTSDALE     CLEAR     72  21  14 CALM      29.80F
MESA-GATEWAY   CLEAR     68  27  21 SE7       29.78F
$$

AZZ027-028-310900-
SOUTHWEST MARICOPA COUNTY AND PINAL COUNTY

CITY           SKY/WX    TMP DP  RH WIND       PRES   REMARKS
CASA GRANDE    CLEAR     70  19  14 W5        29.80S
GILA BEND      FAIR      73  29  19 SE6       29.75F
$$

AZZ503-504-507>509-310900-
SOUTHEAST ARIZONA

CITY           SKY/WX    TMP DP  RH WIND       PRES   REMARKS
TUCSON         CLEAR     70  16  12 VRB3      29.88F
DAVIS-MONTHAN  CLEAR     66  14  13 SE9       29.86F
NOGALES        CLEAR     59  20  22 CALM      29.94F
SIERRA VISTA   CLEAR     63  20  19 SW6       29.99F
DOUGLAS        CLEAR     62  28  27 E5        29.97F
SAFFORD        CLEAR     69  19  15 N5        29.87R
$$

AZZ020-021-025-026-031-310900-
SOUTHWEST ARIZONA

CITY           SKY/WX    TMP DP  RH WIND       PRES   REMARKS
YUMA           CLEAR     78  42  27 SE7       29.73F
$$

CAZ031-033-041-043-047-048-061-310900-
SOUTHERN CALIFORNIA

CITY           SKY/WX    TMP DP  RH WIND       PRES   REMARKS
DOWNTOWN L.A.  CLOUDY    60  56  86 W3        29.89F
L.A. AIRPORT   CLOUDY    59  55  87 W6        29.90F
SAN DIEGO      CLOUDY    64  55  72 NW5       29.91F
BURBANK        CLEAR     58  54  86 CALM      29.88F
ONTARIO        PTCLDY    59  53  80 W6        29.89F
RIVERSIDE      CLEAR     61  54  77 W3        29.89F
PALM SPRINGS   CLEAR     78  54  43 CALM      29.75F
EL CENTRO NAS  CLEAR     75  43  31 W7        29.71F
IMPERIAL       CLEAR     74  46  36 W7        29.69F
BLYTHE         CLEAR     81  41  24 SW7       29.71F
NEEDLES        PTCLDY    87  27  11 SW5       29.72F
$$

NVZ020-UTZ003-310900-
SOUTHERN NEVADA-UTAH

CITY           SKY/WX    TMP DP  RH WIND       PRES   REMARKS
LAS VEGAS      MOCLDY    83  32  16 S3        29.77S
SALT LAKE CITY CLEAR     62  41  46 N5        30.05S
$$

NMZ009-TXZ055-310900-
NEW MEXICO-WEST TEXAS

CITY           SKY/WX    TMP DP  RH WIND       PRES   REMARKS
ALBUQUERQUE    CLOUDY    69  33  26 S7        29.98F
EL PASO        CLOUDY    66  56  70 CALM      29.98S
$$


........................KEY........................
SKY/WX - SKY CONDITION/WEATHER
TMP    - TEMPERATURE IN FAHRENHEIT
DP     - DEW POINT IN FAHRENHEIT
RH     - RELATIVE HUMIDITY IN PERCENT
WIND   - DIRECTION AND SPEED IN MILES PER HOUR (MPH)
VRB    - VARIABLE WIND DIRECTION
PRES   - MEAN SEA LEVEL PRESSURE IN INCHES OF MERCURY
         F - FALLING PRESSURE   R - RISING PRESSURE
         S - STEADY PRESSURE
VSB    - VISIBILITY IN MILES
HX     - HEAT INDEX IN FAHRENHEIT
WCI    - WIND CHILL INDEX IN FAHRENHEIT
TC     - TEMPERATURE IN CELSIUS WHICH IS ALSO KNOWN AS
         TEMPERATURE IN CENTIGRADE
AFB    - AIR FORCE BASE
         LUKE AFB IS LUKE AIR FORCE BASE
         DAVIS-MONTHAN IS DAVIS-MONTHAN AIR FORCE BASE
NAS    - NAVAL AIR STATION
         EL CENTRO NAS IS EL CENTRO NAVAL AIR STATION
N/A    - NOT AVAILABLE





USA.gov is the U.S. government's official web portal to all federal, state and local government web resources and services.